Terminal Aerodrome Forecast
Issued by NWS

Home | Current Version | Previous Version | Text Only | Print | Product List | Glossary On
Versions: 1 2 3 4 5 6 7 8 9 10 11 12 13 14
000
FTUS43 KSGF 050128 AAA
TAFJLN
TAF AMD
KJLN 050128Z 0501/0524 23009KT P6SM -RA BKN050 OVC100
     FM051100 14008KT P6SM OVC040 PROB30 0511/0517 P6SM TSRA
      BKN050CB
     FM051700 20008KT P6SM VCTS OVC040CB=

USA.gov is the U.S. government's official web portal to all federal, state and local government web resources and services.